Location: Roswell
(33.3943°N, 104.5230°W)
Time: 13:19:50
(UTC+00:00)

Vanguard 2 Rocket - Pass Details

Date: 22 November 2024
Orbit: 554 x 3296 km, 32.9° (Epoch: 30 November)

Event Time Altitude Azimuth Distance (km) Brightness Sun altitude
Exits shadow 12:45:35 - 257° (WSW) 4,065 9.7 -10.8°
Reaches altitude 10° 12:46:31 10° 256° (WSW) 3,810 9.6 -10.6°
Maximum altitude 12:57:19 85° 170° (S) 2,338 9.0 -8.4°
Drops below altitude 10° 13:15:40 10° 85° (E) 6,076 12.3 -4.8°
Sets 13:20:48 0° 85° (E) 7,234 12.8 -3.8°
